Regional Weather Roundup
Issued by NWS New Orleans/Baton Rouge, LA

Home | Current Version | Previous Version | Text Only | Print | Product List | Glossary On
Versions: 1 2 3 4 5 6 7 8 9 10 11 12 13 14 15 16 17 18 19 20 21 22 23 24 25 26 27 28 29 30 31 32 33 34 35 36 37 38 39 40 41 42 43 44 45 46 47 48 49 50
000
ASUS44 KLIX 031211
RWRLIX
NEW ORLEANS REGIONAL WEATHER ROUNDUP
NATIONAL WEATHER SERVICE NEW ORLEANS LA
700 AM CDT FRI JUL 03 2015

NOTE: "FAIR" INDICATES FEW OR NO CLOUDS BELOW 12,000 FEET WITH NO
      SIGNIFICANT WEATHER AND/OR OBSTRUCTIONS TO VISIBILITY.
      SKY/WX - SKY CONDITION AND SIGNIFICANT WEATHER.
      TMP - AIR TEMPERATURE.     DP    - DEWPOINT TEMPERATURE.
      RH  - RELATIVE HUMIDITY.   PRES  - PRESSURE.
      HI  - HEAT INDEX.          WCI   - WIND CHILL INDEX.

*  THESE STATIONS ARE NOT NWS OR FAA STATIONS AND ARE NOT UNDER
   NWS QUALITY CONTROL.

LAZ038-040-048-061>063-065>067-069-031300-
SOUTHEAST LOUISIANA

CITY           SKY/WX    TMP DP  RH WIND       PRES   REMARKS
N.O. AUDUBON     N/A     79  78  98 MISG        N/A
6HR MIN TEMP:  78; 6HR MAX TEMP:  81;

N.O. INTL ARPT PTSUNNY   80  74  81 CALM      30.05R
6HR MIN TEMP:  78; 6HR MAX TEMP:  81;

N.O. LAKEFRONT MOSUNNY   84  76  76 CALM      30.06R
6HR MIN TEMP:  82; 6HR MAX TEMP:  85;

N.O. DOWNTOWN*   N/A     82  75  78 CALM      30.06R
6HR MIN TEMP:  82; 6HR MAX TEMP:  84;

RESERVE*         N/A     79  76  90 CALM      30.04S
6HR MIN TEMP:  78; 6HR MAX TEMP:  81;

SLIDELL        PTSUNNY   76  76 100 CALM      30.04R
6HR MIN TEMP:  75; 6HR MAX TEMP:  81;

BATON ROUGE    PTCLDY    78  75  90 CALM      30.03S
6HR MIN TEMP:  76; 6HR MAX TEMP:  80;

BOOTHVILLE     MOSUNNY   83  79  88 S5        30.05S
6HR MIN TEMP:  82; 6HR MAX TEMP:  83;

BELLE CHASSE   MOSUNNY   76  74  93 NE3       30.04S
6HR MIN TEMP:  74; 6HR MAX TEMP:  78;

BOGALUSA*        N/A     75  72  89 CALM      30.06S FOG
6HR MIN TEMP:  75; 6HR MAX TEMP:  78;

GALLIANO*      PTSUNNY   78  76  91 CALM      30.05R
6HR MIN TEMP:  77; 6HR MAX TEMP:  82;

NEW ROADS*       N/A    N/A N/A N/A CALM      30.03S
GONZALES*        N/A     74  74 100 CALM      30.03S
6HR MIN TEMP:  74; 6HR MAX TEMP:  76;

HAMMOND*       PTSUNNY   77  73  88 CALM      30.06S
HOUMA*         CLEAR     77  75  94 CALM      30.04R
PORT FOURCHON* SUNNY     84  75  74 SW6       30.05R

$$

MSZ070-080>082-031300-
SOUTHERN MISSISSIPPI

CITY           SKY/WX    TMP DP  RH WIND       PRES   REMARKS
MCCOMB         CLOUDY    75  75 100 CALM      30.05R FOG
6HR MIN TEMP:  74; 6HR MAX TEMP:  76;

GULFPORT       PTSUNNY   79  77  94 CALM      30.04S
6HR MIN TEMP:  78; 6HR MAX TEMP:  82;

BILOXI         PTSUNNY   81  78  91 SW6       30.05R
6HR MIN TEMP:  80; 6HR MAX TEMP:  81;

PASCAGOULA     CLOUDY    80  78  94 CALM      30.06R
6HR MIN TEMP:  79; 6HR MAX TEMP:  81;


$$

COASTAL OBSERVATIONS
LAKE AND NEARSHORE STATIONS

STATION/POSITION TIME  TEMP    WIND        PRES    WAVE
                       AIR SEA DIR/SP/G            HT/PER
                 (UTC) (F)     (DEG/KT/KT) (MB)    (FT/S)
PASCAGOULA       1100   82     240/  9/ 13 1016.9
WAVELAND YACHT   1100   79 84  290/  2/  2 1017.6
GRAND ISLE       1100   83 85  230/  5/  7 1017.2
SOUTHWEST PASS   1100   83 82  190/  6/  8 1017.7
NEW CANAL        1100   80 84     CALM     1016.5
SHELL BEACH      1100   80 84  210/  2/  2 1016.7

OFFSHORE STATIONS

STATION/POSITION TIME  TEMP    WIND        PRES    WAVE
                       AIR SEA DIR/SP/G            HT/PER
                 (UTC) (F)     (DEG/KT/KT) (MB)    (FT/S)
64 S DAUPHIN ISL 1150   83 84  230/ 10/ 12 1018.1    2/ 4

$$




USA.gov is the U.S. government's official web portal to all federal, state and local government web resources and services.